Regional Weather Roundup
Issued by NWS Green Bay, WI

Home | Current Version | Previous Version | Graphics & Text | Print | Product List | Glossary Off
Versions: 1 2 3 4 5 6 7 8 9 10 11 12 13 14 15 16 17 18 19 20 21 22 23 24 25 26 27 28 29 30 31 32 33 34 35 36 37 38 39 40 41 42 43 44 45 46 47 48 49 50

000
ASUS43 KGRB 040510
RWRGRB

NORTH-CENTRAL AND NORTHEAST WISCONSIN REGIONAL WEATHER ROUNDUP
NATIONAL WEATHER SERVICE GREEN BAY WI
1100 PM CST TUE MAR 03 2015

WIZ005-009-010>012-018-019-040600-
NORTH CENTRAL WISCONSIN

CITY           SKY/WX    TMP DP  RH WIND       PRES   REMARKS
IRONWOOD       CLOUDY    10   1  67 W22       29.76R WCI  -9
MANITOWISH WTR PTCLDY     9   0  68 NW13G18   29.75R WCI  -7
ARBOR VITAE    PTCLDY    13   3  65 NW8       29.75R WCI   2
EAGLE RIVER    CLOUDY    13   3  64 W20G26    29.72R WCI  -5
LAND O LAKES   CLOUDY    15   5  66 W10G18    29.72R WCI   2
RHINELANDER    CLEAR     13   3  64 W14G22    29.74R WCI  -2
PHILLIPS       CLEAR     10   0  64 W7        29.79R WCI  -1
ANTIGO         CLEAR     16   7  65 W21G26    29.74R WCI  -1
TOMAHAWK       PTCLDY    13   3  63 W10       29.78R WCI   0
MERRILL        CLEAR     16   3  56 NW14      29.78R WCI   2
$$

WIZ013-073-040600-
NORTHEAST WISCONSIN

CITY           SKY/WX    TMP DP  RH WIND       PRES   REMARKS
IRON MOUNTAIN  CLOUDY    19   8  62 NW13G25   29.69R WCI   6
MARINETTE      MOCLDY    27  12  54 NW9       29.72R
OCONTO         PTCLDY    26  15  63 NW14G20   29.75R
$$

WIZ017-030-035>037-045-040600-
CENTRAL WISCONSIN

CITY           SKY/WX    TMP DP  RH WIND       PRES   REMARKS
MEDFORD        CLEAR     13   3  64 W15G22    29.79R WCI  -2
WAUSAU         CLEAR     17   6  62 W17       29.78R WCI   1
MOSINEE        CLEAR     18   9  68 W15G25    29.80R WCI   3
MARSHFIELD     CLEAR     16   6  65 W20G26    29.82R WCI  -1
WISC RAPIDS    CLEAR     19   7  59 NW14G23   29.85R WCI   6
STEVENS POINT  CLEAR     18   4  55 W12G21    29.81R WCI   5
WAUPACA        CLEAR     25   9  51 W12G20    29.81R
SHAWANO        PTCLDY    27  14  59 W10       29.77R
CLINTONVILLE   CLOUDY    27  14  59 NW10      29.78R
$$

WIZ038-039-048-051-040600-
FOX VALLEY

CITY           SKY/WX    TMP DP  RH WIND       PRES   REMARKS
NWS GREEN BAY  CLEAR     26  16  65 W18G25    29.77R
APPLETON       PTCLDY    23  10  58 W20G25    29.78R WCI   8
OSHKOSH        MOCLDY    26  15  63 NW15G23   29.79R
FOND DU LAC    MOCLDY    27  15  61 W9        29.81R
$$

WIZ022-050-052-040600-
EAST CENTRAL WISCONSIN

CITY           SKY/WX    TMP DP  RH WIND       PRES   REMARKS
STURGEON BAY   MOCLDY    25  16  68 W13G21    29.75R
MANITOWOC      MOCLDY    27  18  69 W15G21    29.77R
SHEBOYGAN      CLOUDY    29  20  69 W9        29.78R
$$

LMZ563-521-522-541>543-040600-
LAKESHORE

STATION/POSITION TIME  TEMP    WIND        PRES    VSBY  WAVE
                       AIR SEA DIR/SP/G                  HT/PER
                 (UTC) (F)     (DEG/KT/KT) (MB)    (MI)  (FT/S)
SHEBOYGAN LKSHOR 0500   30     270/ 10/ 12 1009.9R
KEWAUNEE LKSHORE 0500   27     270/  9/ 13 1006.6R
NORTHPORT PIER   0500   26     290/  9/ 15 1006.4R
SISTER BAY LKSHO 0400   25     300/ 15/ 18   N/A
CHAMBERS ISLAND  0500   26     290/  5/  8 1006.8R
MENOMINEE LKSHOR 0500   27     260/  8     1007.3R
$$



USA.gov is the U.S. government's official web portal to all federal, state and local government web resources and services.